Date,TemperatureHighF,TemperatureAvgF,TemperatureLowF,DewpointHighF,DewpointAvgF,DewpointLowF,HumidityHigh,HumidityAvg,HumidityLow,PressureMaxIn,PressureMinIn,WindSpeedMaxMPH,WindSpeedAvgMPH,GustSpeedMaxMPH,PrecipitationSumIn
2012-1-1,60,57,55,17,10,5,19,15,12,0.00,40.00,17,13,22,0.00
2012-1-2,61,57,55,20,13,7,22,17,14,0.00,40.00,17,12,21,0.00
2012-1-3,70,64,59,28,16,8,23,16,11,0.00,40.00,9,5,13,0.00
2012-1-4,63,59,57,18,11,8,18,15,13,0.00,40.00,14,11,20,0.00
2012-1-5,61,58,55,23,15,7,26,19,14,0.00,40.00,12,8,17,0.00
2012-1-6,64,57,52,26,19,11,33,23,15,0.00,40.00,16,9,21,0.00
2012-1-7,58,52,43,26,20,14,36,29,22,0.00,40.00,20,12,25,0.00
2012-1-8,50,44,38,17,6,-2,34,21,13,0.00,40.00,28,14,40,0.00
2012-1-9,49,47,43,18,14,7,29,26,20,0.00,40.00,25,15,38,0.00
2012-1-10,57,49,45,29,22,13,49,34,25,0.00,40.00,9,7,12,0.00
2012-1-11,53,50,48,23,20,18,34,30,25,0.00,40.00,17,10,24,0.00
2012-1-12,49,46,43,20,12,-4,32,26,12,0.00,40.00,14,10,21,0.00
2012-1-13,48,45,43,1,-5,-8,17,12,10,0.00,40.00,25,17,35,0.00
2012-1-14,53,48,45,15,0,-8,25,14,10,0.00,40.00,18,10,24,0.00
2012-1-15,48,42,35,35,24,6,100,55,20,0.00,40.00,27,20,36,0.00
2012-1-16,38,35,30,38,35,27,100,99,83,0.00,40.00,36,26,47,0.00
2012-1-17,49,43,29,30,6,-17,100,27,6,0.00,40.00,20,10,27,0.00
2012-1-18,56,51,45,17,1,-26,28,13,4,0.00,40.00,19,12,26,0.00
2012-1-19,60,53,49,17,1,-7,25,12,8,0.00,40.00,20,15,29,0.00
2012-1-20,54,48,43,38,18,-3,72,35,12,0.00,40.00,28,20,38,0.00
2012-1-21,46,40,34,45,37,21,100,92,38,0.00,40.00,41,29,57,0.00
2012-1-22,48,42,38,36,22,7,90,46,21,0.00,40.00,21,15,28,0.00
2012-1-23,42,39,35,40,30,15,100,76,33,0.00,40.00,40,30,59,0.00
2012-1-24,49,43,35,39,25,9,100,55,22,0.00,40.00,18,12,27,0.00
2012-1-25,57,52,46,28,23,9,40,32,22,0.00,40.00,22,16,35,0.00
2012-1-26,69,59,54,33,25,17,44,28,16,0.00,40.00,25,12,34,0.00
2012-1-27,57,51,44,32,27,16,48,39,30,0.00,40.00,28,17,36,0.00
2012-1-28,51,46,43,17,1,-10,33,16,8,0.00,40.00,26,19,40,0.00
2012-1-29,55,51,47,16,1,-8,24,13,9,0.00,40.00,21,11,28,0.00
2012-1-30,55,50,46,22,11,-7,38,21,10,0.00,40.00,21,14,28,0.00
2012-1-31,54,48,43,13,0,-12,20,13,8,0.00,40.00,17,10,20,0.00
2012-2-1,54,49,42,36,18,4,75,32,15,0.00,40.00,31,14,41,0.00
2012-2-2,55,47,41,23,14,4,42,27,14,0.00,40.00,17,8,25,0.00
2012-2-3,45,41,39,11,8,3,31,25,22,0.00,40.00,16,13,23,0.00
2012-2-4,47,42,39,20,17,11,40,36,30,0.00,40.00,16,13,23,0.00
2012-2-5,50,45,41,19,18,17,41,34,28,0.00,40.00,12,10,17,0.00
2012-2-6,50,45,42,19,17,16,37,32,28,0.00,40.00,16,11,22,0.00
2012-2-7,45,42,36,37,21,14,92,46,31,0.00,40.00,18,13,24,0.00
2012-2-8,50,47,41,30,23,19,65,39,32,0.00,40.00,25,18,37,0.00
2012-2-9,63,54,48,31,25,20,43,32,25,0.00,40.00,18,9,28,0.00
2012-2-10,60,54,48,39,28,19,63,38,27,0.00,40.00,22,13,33,0.00
2012-2-11,46,40,34,39,34,27,100,83,49,0.00,40.00,36,28,48,0.00
2012-2-12,38,36,33,38,36,33,100,100,100,0.00,40.00,33,27,45,0.00
2012-2-13,38,34,29,38,34,29,100,100,100,0.00,40.00,38,30,53,0.00
2012-2-14,36,32,29,35,32,29,100,100,97,0.00,40.00,29,16,37,0.00
2012-2-15,35,31,28,35,31,28,100,100,100,0.00,40.00,40,21,51,0.00
2012-2-16,43,35,28,34,29,19,100,81,39,0.00,40.00,19,11,27,0.00
2012-2-17,51,46,41,29,18,11,56,33,22,0.00,40.00,14,8,20,0.00
2012-2-18,52,44,34,41,23,9,100,51,19,0.00,40.00,26,12,33,0.00
2012-2-19,40,36,34,38,35,34,100,98,83,0.00,40.00,30,24,41,0.00
2012-2-20,48,41,32,39,30,13,100,68,32,0.00,40.00,14,7,20,0.00
2012-2-21,50,45,39,30,19,12,66,37,23,0.00,40.00,17,13,24,0.00
2012-2-22,61,54,48,34,26,15,48,34,25,0.00,40.00,17,11,25,0.00
2012-2-23,64,58,53,28,22,15,37,25,15,0.00,40.00,15,8,23,0.00
2012-2-24,61,55,51,43,23,18,66,30,21,0.00,40.00,17,10,26,0.00
2012-2-25,57,51,46,40,24,11,76,36,24,0.00,40.00,29,17,41,0.00
2012-2-26,55,47,35,43,20,-5,100,44,10,0.00,40.00,23,12,28,0.00
2012-2-27,36,32,26,34,31,26,100,98,85,0.00,40.00,37,26,53,0.00
2012-2-28,32,29,26,32,29,26,100,100,100,0.00,40.00,44,18,58,0.00
2012-2-29,40,34,27,35,29,14,100,86,36,0.00,40.00,39,22,51,0.00
2012-3-1,39,35,32,38,35,32,100,99,91,0.00,40.00,43,33,52,0.00
2012-3-2,43,39,32,32,9,-11,100,37,11,0.00,40.00,26,19,40,0.00
2012-3-3,53,46,39,6,-1,-8,15,14,12,0.00,40.00,24,18,32,0.00
2012-3-4,61,56,51,18,12,3,22,18,10,0.00,40.00,18,13,25,0.00
2012-3-5,67,61,53,32,15,0,39,18,9,0.00,40.00,21,10,27,0.00
2012-3-6,53,44,29,40,24,-2,100,58,11,0.00,40.00,45,31,59,0.00
2012-3-7,41,33,24,30,19,0,100,65,21,0.00,40.00,43,13,58,0.00
2012-3-8,50,45,39,15,10,6,26,24,18,0.00,40.00,33,21,47,0.00
2012-3-9,56,52,47,19,12,4,24,21,16,0.00,40.00,24,15,34,0.00
2012-3-10,58,53,48,27,13,-100,43,21,14,0.00,40.00,21,13,26,0.00
2012-3-11,53,47,42,39,12,-1,88,27,13,0.00,40.00,27,21,36,0.00
2012-3-12,58,49,42,41,13,-6,82,27,11,0.00,40.00,22,12,29,0.00
2012-3-13,52,46,41,41,23,-10,89,44,9,0.00,40.00,21,14,28,0.00
2012-3-14,55,47,40,42,31,22,94,58,28,0.00,40.00,26,17,33,0.00
2012-3-15,60,50,44,45,29,-1,90,49,12,0.00,40.00,18,13,22,0.00
2012-3-16,53,47,40,45,40,32,100,76,57,0.00,40.00,27,22,38,0.00
2012-3-17,42,38,29,42,38,29,100,100,96,0.00,40.00,47,35,67,0.00
2012-3-18,29,28,26,29,28,26,100,100,100,0.00,40.00,40,31,60,0.00
2012-3-19,37,31,26,34,30,26,100,98,81,0.00,40.00,38,20,51,0.00
2012-3-20,48,42,32,32,26,-100,100,56,37,0.00,40.00,18,8,25,0.00
2012-3-21,60,53,45,42,29,19,60,41,30,0.00,40.00,14,6,18,0.00
2012-3-22,64,56,48,45,36,-100,75,48,28,0.00,40.00,17,2,21,0.00
2012-3-23,57,50,42,46,37,27,89,64,38,0.00,40.00,21,13,26,0.00
2012-3-24,58,51,46,44,32,23,84,49,34,0.00,40.00,19,11,26,0.00
2012-3-25,49,40,33,41,35,23,100,86,36,0.00,40.00,46,24,59,0.00
2012-3-26,47,38,32,40,36,31,100,93,67,0.00,40.00,43,20,63,0.00
2012-3-27,55,46,39,45,28,11,100,54,25,0.00,40.00,23,11,28,0.00
2012-3-28,54,46,41,43,28,4,96,52,19,0.00,40.00,26,17,32,0.00
2012-3-29,61,50,43,47,37,25,100,63,32,0.00,40.00,26,15,32,0.00
2012-3-30,67,58,53,49,33,22,75,40,23,0.00,40.00,16,8,20,0.00
2012-3-31,58,46,38,44,38,28,100,75,35,0.00,40.00,41,23,54,0.00
2012-4-1,45,36,31,39,34,18,100,92,47,0.00,40.00,45,23,62,0.00
2012-4-2,57,49,42,34,16,3,55,27,15,0.00,40.00,13,7,21,0.00
2012-4-3,60,53,47,28,18,11,36,26,20,0.00,40.00,21,11,28,0.00
2012-4-4,60,53,47,42,21,11,77,31,18,0.00,40.00,20,17,27,0.00
2012-4-5,53,47,35,42,24,-4,100,49,11,0.00,40.00,34,25,45,0.00
2012-4-6,53,45,33,33,10,-4,97,29,12,0.00,40.00,29,14,38,0.00
2012-4-7,63,54,47,22,4,-2,25,13,8,0.00,40.00,15,10,21,0.00
2012-4-8,67,60,55,29,12,-12,33,17,5,0.00,40.00,16,8,21,0.00
2012-4-9,67,59,52,34,19,1,46,23,9,0.00,40.00,18,9,25,0.00
2012-4-10,61,51,36,44,27,8,100,48,16,0.00,40.00,28,14,39,0.00
2012-4-11,40,37,34,40,37,34,100,100,98,0.00,40.00,37,27,47,0.00
2012-4-12,43,37,33,38,35,33,100,95,76,0.00,40.00,34,27,48,0.00
2012-4-13,41,35,29,39,35,29,100,98,81,0.00,40.00,40,28,58,0.00
2012-4-14,33,31,29,33,30,-100,100,100,100,0.00,40.00,41,30,61,0.00
2012-4-15,55,45,32,45,34,27,100,70,42,0.00,40.00,14,8,21,0.00
2012-4-16,63,55,46,41,31,25,50,41,26,0.00,40.00,15,8,23,0.00
2012-4-17,68,61,54,43,33,24,50,36,25,0.00,40.00,15,6,20,0.00
2012-4-18,65,59,53,44,27,6,70,31,12,0.00,40.00,23,17,29,0.00
2012-4-19,73,64,51,53,32,5,60,31,11,0.00,40.00,23,10,29,0.00
2012-4-20,76,71,67,50,34,29,53,26,20,0.00,40.00,20,11,30,0.00
2012-4-21,80,72,68,51,35,25,43,26,17,0.00,40.00,14,7,19,0.00
2012-4-22,80,71,65,54,31,19,61,25,15,0.00,40.00,16,7,22,0.00
2012-4-23,66,52,42,50,42,27,100,75,23,0.00,40.00,28,11,37,0.00
2012-4-24,68,54,39,49,37,23,100,58,18,0.00,40.00,30,16,37,0.00
2012-4-25,68,59,45,51,39,27,100,51,29,0.00,40.00,37,16,48,0.00
2012-4-26,47,43,40,46,43,37,100,98,76,0.00,40.00,41,30,56,0.00
2012-4-27,65,51,40,52,41,33,100,74,34,0.00,40.00,36,13,48,0.00
2012-4-28,69,61,57,52,36,-100,71,42,16,0.00,40.00,15,7,23,0.00
2012-4-29,69,64,60,36,28,23,41,26,19,0.00,40.00,17,9,29,0.00
2012-4-30,71,63,53,56,36,24,77,40,22,0.00,40.00,17,8,26,0.00
2012-5-1,59,52,43,50,43,33,100,74,41,0.00,40.00,28,23,36,0.00
2012-5-2,47,43,40,46,42,38,100,99,80,0.00,40.00,31,24,40,0.00
2012-5-3,59,48,40,48,43,32,100,85,39,0.00,40.00,27,20,35,0.00
2012-5-4,58,52,44,45,38,28,98,61,36,0.00,40.00,28,22,38,0.00
2012-5-5,65,54,45,47,35,-100,90,53,19,0.00,40.00,21,13,28,0.00
2012-5-6,68,59,53,50,32,0,72,41,9,0.00,40.00,16,7,22,0.00
2012-5-7,70,62,56,43,24,7,52,25,11,0.00,40.00,20,10,29,0.00
2012-5-8,67,62,56,27,15,6,29,16,10,0.00,40.00,22,9,33,0.00
2012-5-9,75,67,61,45,25,10,40,22,12,0.00,40.00,17,10,24,0.00
2012-5-10,68,63,55,44,25,-3,67,25,11,0.00,40.00,28,21,36,0.00
2012-5-11,65,59,54,46,24,-13,73,31,5,0.00,40.00,24,18,29,0.00
2012-5-12,75,66,57,46,26,-100,46,25,9,0.00,40.00,20,10,25,0.00
2012-5-13,79,69,58,43,24,-5,50,21,5,0.00,40.00,19,12,23,0.00
2012-5-14,77,67,58,50,28,9,63,26,11,0.00,40.00,25,14,32,0.00
2012-5-15,67,61,56,42,18,-2,55,21,8,0.00,40.00,28,21,35,0.00
2012-5-16,80,72,58,43,30,13,36,22,10,0.00,40.00,15,10,22,0.00
2012-5-17,74,69,56,50,34,15,64,31,11,0.00,40.00,32,16,43,0.00
2012-5-18,58,53,47,48,35,9,98,55,15,0.00,40.00,33,22,46,0.00
2012-5-19,75,66,53,53,33,-100,78,34,14,0.00,40.00,12,6,20,0.00
2012-5-20,81,72,67,55,31,19,63,25,11,0.00,40.00,14,7,26,0.00
2012-5-21,78,71,63,44,34,22,41,26,17,0.00,40.00,22,12,27,0.00
2012-5-22,71,66,60,46,31,15,59,29,15,0.00,40.00,26,21,34,0.00
2012-5-23,65,60,53,50,40,30,77,50,27,0.00,40.00,34,29,46,0.00
2012-5-24,69,57,45,51,42,32,99,61,28,0.00,40.00,30,16,38,0.00
2012-5-25,45,42,34,45,42,34,100,99,92,0.00,40.00,41,30,57,0.00
2012-5-26,46,39,33,39,36,33,100,90,64,0.00,40.00,39,28,54,0.00
2012-5-27,64,53,39,47,32,22,85,51,20,0.00,40.00,24,10,30,0.00
2012-5-28,72,62,58,43,29,19,48,30,15,0.00,40.00,16,8,23,0.00
2012-5-29,68,62,56,43,30,17,53,31,19,0.00,40.00,19,12,25,0.00
2012-5-30,68,61,56,47,36,22,68,40,23,0.00,40.00,20,15,27,0.00
2012-5-31,86,73,61,49,35,16,47,28,8,0.00,40.00,13,8,23,0.00
2012-6-1,81,74,64,49,30,10,59,21,11,0.00,40.00,27,16,32,0.00
2012-6-2,74,66,60,51,33,-100,62,32,10,0.00,40.00,29,20,36,0.00
2012-6-3,75,66,60,51,37,14,60,37,15,0.00,40.00,17,11,22,0.00
2012-6-4,66,60,50,53,47,37,97,65,40,0.00,40.00,27,16,40,0.00
2012-6-5,59,50,44,48,44,26,100,82,49,0.00,40.00,34,28,49,0.00
2012-6-6,72,59,47,48,29,-6,72,38,7,0.00,40.00,26,11,33,0.00
2012-6-7,78,70,65,49,30,19,52,25,12,0.00,40.00,13,8,19,0.00
2012-6-8,72,66,57,50,38,24,60,36,17,0.00,40.00,24,14,30,0.00
2012-6-9,63,59,53,48,37,10,70,47,14,0.00,40.00,31,25,39,0.00
2012-6-10,76,67,56,52,25,-25,68,26,2,0.00,40.00,26,10,34,0.00
2012-6-11,81,72,65,52,30,13,51,24,10,0.00,40.00,13,8,21,0.00
2012-6-12,79,72,66,51,39,25,45,31,18,0.00,40.00,17,10,25,0.00
2012-6-13,71,67,62,42,31,16,45,27,14,0.00,40.00,23,18,31,0.00
2012-6-14,72,65,59,51,37,13,72,38,14,0.00,40.00,22,12,28,0.00
2012-6-15,74,68,59,44,34,15,56,31,14,0.00,40.00,14,9,23,0.00
2012-6-16,73,67,59,49,34,-100,59,32,16,0.00,40.00,21,15,33,0.00
2012-6-17,82,74,69,45,29,12,40,20,10,0.00,40.00,21,11,25,0.00
2012-6-18,76,71,61,40,25,12,30,19,11,0.00,40.00,23,18,33,0.00
2012-6-19,70,63,57,36,28,19,34,27,15,0.00,40.00,34,25,49,0.00
2012-6-20,76,70,62,45,29,7,41,24,8,0.00,40.00,24,17,30,0.00
2012-6-21,74,69,61,50,30,2,58,28,7,0.00,40.00,28,15,36,0.00
2012-6-22,70,64,56,45,24,6,60,25,11,0.00,40.00,29,24,40,0.00
2012-6-23,70,63,57,43,29,18,58,29,19,0.00,40.00,31,22,40,0.00
2012-6-24,71,63,56,48,39,25,60,42,27,0.00,40.00,22,15,27,0.00
2012-6-25,71,63,56,44,36,28,61,38,22,0.00,40.00,24,19,30,0.00
2012-6-26,75,65,55,41,20,-10,50,21,5,0.00,40.00,20,14,25,0.00
2012-6-27,80,70,62,47,30,9,49,23,9,0.00,40.00,22,14,29,0.00
2012-6-28,78,72,64,43,28,7,45,22,8,0.00,40.00,22,15,29,0.00
2012-6-29,78,69,60,37,18,2,42,15,8,0.00,40.00,24,20,32,0.00
2012-6-30,74,67,61,45,27,9,56,25,10,0.00,40.00,25,22,34,0.00
2012-7-1,72,65,60,50,39,26,65,40,26,0.00,40.00,27,22,34,0.00
2012-7-2,76,67,60,53,42,30,64,41,27,0.00,40.00,17,11,21,0.00
2012-7-3,78,70,60,58,46,19,70,45,15,0.00,40.00,14,7,22,0.00
2012-7-4,74,68,64,57,50,19,71,54,14,0.00,40.00,16,8,24,0.00
2012-7-5,79,69,64,55,46,36,70,45,27,0.00,40.00,15,10,23,0.00
2012-7-6,78,71,64,53,40,9,58,34,10,0.00,40.00,18,8,26,0.00
2012-7-7,78,73,68,40,29,8,32,20,9,0.00,40.00,20,14,27,0.00
2012-7-8,80,74,69,37,24,7,21,15,8,0.00,40.00,22,16,30,0.00
2012-7-9,88,80,72,41,28,-7,27,16,3,0.00,40.00,18,10,24,0.00
2012-7-10,88,80,73,41,35,18,28,20,11,0.00,40.00,19,13,26,0.00
2012-7-11,90,80,74,49,40,32,35,24,16,0.00,40.00,17,8,22,0.00
2012-7-12,79,72,65,62,53,34,86,55,20,0.00,40.00,23,10,37,0.00
2012-7-13,75,69,64,62,55,41,94,62,32,0.00,40.00,14,7,25,0.00
2012-7-14,77,70,64,62,56,46,92,62,46,0.00,40.00,17,7,24,0.00
2012-7-15,78,70,62,56,44,19,72,40,16,0.00,40.00,20,11,26,0.00
2012-7-16,72,63,53,48,29,-6,84,33,5,0.00,40.00,26,16,36,0.00
2012-7-17,68,62,54,48,30,11,66,32,14,0.00,40.00,22,18,28,0.00
2012-7-18,77,68,59,45,35,23,48,31,15,0.00,40.00,21,13,27,0.00
2012-7-19,80,74,68,48,40,30,48,30,21,0.00,40.00,18,10,24,0.00
2012-7-20,80,73,66,50,44,33,50,37,23,0.00,40.00,18,11,26,0.00
2012-7-21,85,77,71,56,47,34,50,36,24,0.00,40.00,14,7,21,0.00
2012-7-22,83,76,70,61,54,31,61,46,23,0.00,40.00,14,7,21,0.00
2012-7-23,82,74,67,58,47,8,53,41,9,0.00,40.00,20,9,23,0.00
2012-7-24,76,70,65,45,23,-13,49,19,3,0.00,40.00,23,18,30,0.00
2012-7-25,77,70,65,46,20,-2,49,17,6,0.00,40.00,24,19,30,0.00
2012-7-26,78,71,65,44,26,9,37,19,10,0.00,40.00,23,17,29,0.00
2012-7-27,76,70,64,45,26,1,49,21,7,0.00,40.00,23,18,30,0.00
2012-7-28,82,74,66,37,13,-18,28,12,2,0.00,40.00,23,14,28,0.00
2012-7-29,84,76,72,54,41,9,52,29,7,0.00,40.00,13,7,20,0.00
2012-7-30,75,69,64,65,55,15,95,69,10,0.00,40.00,12,6,21,0.00
2012-7-31,72,67,64,57,48,30,74,52,25,0.00,40.00,18,10,23,0.00
2012-8-1,76,70,62,49,41,23,63,36,18,0.00,40.00,15,10,22,0.00
2012-8-2,77,72,64,53,48,40,55,43,35,0.00,40.00,14,9,20,0.00
2012-8-3,79,72,65,54,48,42,57,43,30,0.00,40.00,14,8,20,0.00
2012-8-4,84,75,69,54,47,23,57,38,14,0.00,40.00,13,6,20,0.00
2012-8-5,85,79,73,53,40,23,43,26,14,0.00,40.00,13,6,21,0.00
2012-8-6,87,79,74,56,50,45,52,38,26,0.00,40.00,15,8,26,0.00
2012-8-7,89,81,76,56,48,42,43,32,24,0.00,40.00,15,6,23,0.00
2012-8-8,89,82,77,50,46,41,36,29,24,0.00,40.00,16,8,22,0.00
2012-8-9,90,83,78,63,50,41,60,32,22,0.00,40.00,11,6,18,0.00
2012-8-10,90,82,75,63,55,43,63,41,25,0.00,40.00,13,7,22,0.00
2012-8-11,86,79,75,57,53,-100,54,41,31,0.00,40.00,18,10,26,0.00
2012-8-12,91,81,76,57,51,44,46,35,23,0.00,40.00,20,8,34,0.00
2012-8-13,88,80,73,56,50,43,50,36,25,0.00,40.00,16,8,26,0.00
2012-8-14,87,79,70,55,48,39,55,34,19,0.00,40.00,22,11,29,0.00
2012-8-15,79,75,70,55,46,28,59,38,16,0.00,40.00,16,9,22,0.00
2012-8-16,78,74,69,69,57,42,94,57,29,0.00,40.00,16,8,24,0.00
2012-8-17,76,69,65,66,63,57,96,81,61,0.00,40.00,15,8,23,0.00
2012-8-18,78,71,65,65,60,52,93,71,46,0.00,40.00,14,7,19,0.00
2012-8-19,82,74,67,60,56,54,67,55,43,0.00,40.00,15,7,22,0.00
2012-8-20,82,75,68,59,55,52,68,51,38,0.00,40.00,16,7,22,0.00
2012-8-21,80,72,64,60,57,50,83,59,44,0.00,40.00,16,8,21,0.00
2012-8-22,75,69,65,61,56,45,80,65,46,0.00,40.00,18,7,26,0.00
2012-8-23,75,69,63,64,59,57,85,71,57,0.00,40.00,14,5,20,0.00
2012-8-24,79,70,65,60,57,52,80,64,43,0.00,40.00,14,7,19,0.00
2012-8-25,78,70,62,58,51,33,70,53,33,0.00,40.00,19,10,25,0.00
2012-8-26,77,69,61,47,29,12,46,24,11,0.00,40.00,18,14,26,0.00
2012-8-27,83,75,68,44,34,16,32,23,13,0.00,40.00,16,11,26,0.00
2012-8-28,86,81,76,45,37,26,29,21,14,0.00,40.00,14,5,22,0.00
2012-8-29,83,78,72,56,49,40,57,37,25,0.00,40.00,15,8,23,0.00
2012-8-30,76,71,63,67,57,46,93,64,37,0.00,40.00,19,8,30,0.00
2012-8-31,77,70,65,58,50,31,74,51,27,0.00,40.00,19,10,29,0.00
2012-9-1,78,71,66,36,26,16,27,19,14,0.00,40.00,22,15,31,0.00
2012-9-2,82,74,68,39,25,12,28,17,10,0.00,40.00,21,16,27,0.00
2012-9-3,85,76,71,49,37,27,31,25,17,0.00,40.00,16,10,20,0.00
2012-9-4,82,75,70,48,35,24,42,24,16,0.00,40.00,15,8,21,0.00
2012-9-5,80,71,65,49,33,13,38,25,11,0.00,40.00,20,10,27,0.00
2012-9-6,76,68,63,55,46,32,72,47,31,0.00,40.00,19,13,28,0.00
2012-9-7,77,70,62,58,54,51,76,58,40,0.00,40.00,15,9,21,0.00
2012-9-8,84,78,71,59,52,48,59,42,30,0.00,40.00,14,6,24,0.00
2012-9-9,76,71,62,62,59,54,96,67,48,0.00,40.00,20,11,29,0.00
2012-9-10,69,64,61,64,60,52,97,90,54,0.00,40.00,13,7,22,0.00
2012-9-11,70,64,60,62,60,59,97,89,72,0.00,40.00,14,6,21,0.00
2012-9-12,77,68,62,62,59,49,96,75,39,0.00,40.00,11,6,17,0.00
2012-9-13,80,74,69,56,40,31,64,30,19,0.00,40.00,19,11,30,0.00
2012-9-14,78,74,70,47,34,27,39,24,16,0.00,40.00,22,14,34,0.00
2012-9-15,77,72,68,39,33,26,31,24,18,0.00,40.00,17,12,26,0.00
2012-9-16,78,71,65,46,36,30,50,29,19,0.00,40.00,17,8,26,0.00
2012-9-17,75,68,64,46,35,29,45,30,22,0.00,40.00,18,13,25,0.00
2012-9-18,81,73,65,49,35,27,44,26,15,0.00,40.00,12,6,20,0.00
2012-9-19,82,76,72,49,36,33,44,24,18,0.00,40.00,11,5,19,0.00
2012-9-20,84,77,73,46,38,31,36,25,16,0.00,40.00,16,5,22,0.00
2012-9-21,82,75,71,51,38,33,50,27,18,0.00,40.00,16,8,23,0.00
2012-9-22,81,74,69,48,38,-100,40,28,20,0.00,40.00,16,9,22,0.00
2012-9-23,81,74,69,41,34,27,33,24,14,0.00,40.00,19,10,33,0.00
2012-9-24,74,68,60,47,38,32,50,34,26,0.00,40.00,28,17,37,0.00
2012-9-25,68,62,55,48,40,35,71,47,35,0.00,40.00,31,23,39,0.00
2012-9-26,76,68,56,42,34,29,59,30,21,0.00,40.00,15,8,24,0.00
2012-9-27,76,70,64,46,36,29,51,30,24,0.00,40.00,15,8,25,0.00
2012-9-28,77,68,63,44,39,33,43,35,26,0.00,40.00,13,6,18,0.00
2012-9-29,79,71,67,42,40,32,39,32,20,0.00,40.00,11,4,16,0.00
2012-9-30,82,75,71,38,32,25,29,21,13,0.00,40.00,11,6,20,0.00
2012-10-1,85,78,72,33,25,21,24,14,10,0.00,40.00,13,5,21,0.00
2012-10-2,83,78,70,34,26,20,24,15,11,0.00,40.00,20,9,27,0.00
2012-10-3,75,69,60,45,34,27,56,29,20,0.00,40.00,30,21,40,0.00
2012-10-4,70,63,58,46,31,20,64,31,20,0.00,40.00,32,28,40,0.00
2012-10-5,70,63,59,49,34,26,69,36,22,0.00,40.00,29,16,37,0.00
2012-10-6,69,62,57,46,39,33,58,44,31,0.00,40.00,28,19,37,0.00
2012-10-7,69,60,55,53,46,38,86,59,35,0.00,40.00,20,13,28,0.00
2012-10-8,69,60,54,53,39,9,91,50,17,0.00,40.00,20,13,26,0.00
2012-10-9,67,58,48,51,27,5,96,39,10,0.00,40.00,20,15,26,0.00
2012-10-10,59,50,44,48,44,30,99,82,38,0.00,40.00,22,16,29,0.00
2012-10-11,47,43,41,44,42,39,100,96,75,0.00,40.00,29,21,37,0.00
2012-10-12,45,43,40,45,43,40,100,99,95,0.00,40.00,29,17,38,0.00
2012-10-13,64,56,44,44,36,33,99,48,35,0.00,40.00,13,7,20,0.00
2012-10-14,69,65,61,37,35,32,40,33,30,0.00,40.00,25,14,36,0.00
2012-10-15,76,68,61,38,32,25,37,27,18,0.00,40.00,14,6,18,0.00
2012-10-16,77,70,66,35,29,23,28,22,14,0.00,40.00,10,4,16,0.00
2012-10-17,74,69,65,32,29,27,26,23,19,0.00,40.00,18,10,26,0.00
2012-10-18,71,65,57,57,49,29,95,57,26,0.00,40.00,14,7,23,0.00
2012-10-19,75,67,59,55,37,15,78,38,12,0.00,40.00,15,7,20,0.00
2012-10-20,64,58,49,54,46,33,98,69,36,0.00,40.00,22,17,29,0.00
2012-10-21,52,49,46,50,48,46,99,97,86,0.00,40.00,28,24,37,0.00
2012-10-22,54,47,42,46,45,40,99,91,62,0.00,40.00,26,22,34,0.00
2012-10-23,50,44,39,45,41,25,100,90,46,0.00,40.00,29,22,38,0.00
2012-10-24,56,46,39,44,38,27,100,76,36,0.00,40.00,33,19,44,0.00
2012-10-25,62,56,48,36,15,-8,63,22,7,0.00,40.00,22,10,30,0.00
2012-10-26,57,54,49,18,13,-4,27,21,8,0.00,40.00,25,19,36,0.00
2012-10-27,67,61,56,14,4,-6,13,10,7,0.00,40.00,18,13,29,0.00
2012-10-28,71,64,61,23,13,8,22,13,11,0.00,40.00,13,8,18,0.00
2012-10-29,73,66,61,24,16,9,20,14,12,0.00,40.00,10,4,14,0.00
2012-10-30,73,66,62,32,20,10,31,18,10,0.00,40.00,11,4,16,0.00
2012-10-31,71,64,57,42,23,12,55,22,13,0.00,40.00,14,5,20,0.00
2012-11-1,64,57,50,43,23,10,75,30,16,0.00,40.00,18,11,23,0.00
2012-11-2,64,57,50,39,22,9,64,27,12,0.00,40.00,13,8,20,0.00
2012-11-3,64,60,55,34,29,23,43,32,25,0.00,40.00,16,9,24,0.00
2012-11-4,67,63,59,27,19,15,28,19,14,0.00,40.00,26,18,37,0.00
2012-11-5,71,66,62,22,19,15,19,16,14,0.00,40.00,25,11,37,0.00
2012-11-6,74,67,62,36,24,20,36,20,14,0.00,40.00,12,6,17,0.00
2012-11-7,67,61,55,38,26,21,46,27,18,0.00,40.00,21,14,28,0.00
2012-11-8,56,49,42,48,42,22,99,81,29,0.00,40.00,36,23,49,0.00
2012-11-9,45,37,32,45,37,32,100,100,88,0.00,40.00,46,36,60,0.00
2012-11-10,38,34,31,35,32,27,100,95,71,0.00,40.00,34,24,48,0.00
2012-11-11,42,38,31,29,14,8,92,40,29,0.00,40.00,23,15,30,0.00
2012-11-12,50,43,37,13,1,-15,37,19,6,0.00,40.00,22,15,29,0.00
2012-11-13,58,53,49,7,-4,-18,14,9,5,0.00,40.00,20,13,27,0.00
2012-11-14,61,56,51,8,4,-100,15,12,11,0.00,40.00,10,7,16,0.00
2012-11-15,57,54,49,41,15,5,61,23,12,0.00,40.00,18,7,23,0.00
2012-11-16,55,51,46,47,41,23,98,70,35,0.00,40.00,20,14,31,0.00
2012-11-17,50,47,44,48,46,42,99,96,80,0.00,40.00,29,20,38,0.00
2012-11-18,52,46,43,46,43,40,99,91,64,0.00,40.00,23,17,31,0.00
2012-11-19,60,51,43,44,38,31,99,62,33,0.00,40.00,10,6,14,0.00
2012-11-20,60,55,51,43,36,30,70,50,32,0.00,40.00,8,5,12,0.00
2012-11-21,60,55,50,44,28,11,67,36,18,0.00,40.00,16,9,21,0.00
2012-11-22,60,56,53,36,31,25,52,39,30,0.00,40.00,15,10,22,0.00
2012-11-23,62,57,54,32,25,20,41,29,24,0.00,40.00,17,13,24,0.00
2012-11-24,66,62,57,27,14,-1,26,15,8,0.00,40.00,13,8,17,0.00
2012-11-25,65,60,54,34,28,24,45,30,24,0.00,40.00,17,8,22,0.00
2012-11-26,59,56,53,26,24,22,32,30,27,0.00,40.00,12,8,14,0.00
2012-11-27,61,57,53,27,25,23,36,30,26,0.00,40.00,13,7,21,0.00
2012-11-28,57,52,44,44,32,23,98,50,30,0.00,40.00,22,10,30,0.00
2012-11-29,53,49,45,51,47,38,99,94,71,0.00,40.00,27,20,36,0.00
2012-11-30,51,50,48,50,49,48,99,98,98,0.00,40.00,29,22,43,0.00
2012-12-1,54,49,44,49,46,34,100,90,59,0.00,40.00,25,15,33,0.00
2012-12-2,48,46,45,48,46,45,99,99,98,0.00,40.00,29,21,39,0.00
2012-12-3,55,48,44,49,44,10,100,89,16,0.00,40.00,30,18,39,0.00
2012-12-4,64,57,50,46,36,6,81,53,10,0.00,40.00,14,7,18,0.00
2012-12-5,65,61,54,37,19,-2,48,24,7,0.00,40.00,21,10,30,0.00
2012-12-6,60,53,51,48,38,-100,86,60,43,0.00,40.00,16,9,21,0.00
2012-12-7,60,55,52,46,35,27,71,48,29,0.00,40.00,10,6,15,0.00
2012-12-8,58,54,49,39,25,14,69,34,21,0.00,40.00,14,6,20,0.00
2012-12-9,58,52,45,22,17,0,38,25,12,0.00,40.00,18,8,27,0.00
2012-12-10,58,52,45,29,21,13,42,30,19,0.00,40.00,18,6,27,0.00
2012-12-11,57,50,45,29,20,14,46,31,21,0.00,40.00,24,12,31,0.00
2012-12-12,53,46,39,41,25,3,98,51,16,0.00,40.00,28,20,36,0.00
2012-12-13,42,38,32,40,36,32,100,95,79,0.00,40.00,27,16,38,0.00
2012-12-14,33,32,30,33,32,30,100,100,100,0.00,40.00,42,28,54,0.00
2012-12-15,37,34,30,37,34,28,100,97,78,0.00,40.00,32,21,44,0.00
2012-12-16,43,38,32,43,38,32,100,100,100,0.00,40.00,37,24,50,0.00
2012-12-17,48,43,41,46,43,41,100,99,88,0.00,40.00,25,16,34,0.00
2012-12-18,41,38,27,41,37,20,100,99,76,0.00,40.00,39,29,57,0.00
2012-12-19,35,31,25,21,8,1,80,40,24,0.00,40.00,33,16,47,0.00
2012-12-20,43,34,29,12,7,-12,44,32,10,0.00,40.00,21,15,28,0.00
2012-12-21,55,48,42,17,-3,-18,27,12,6,0.00,40.00,11,6,15,0.00
2012-12-22,49,44,35,37,11,-13,100,36,8,0.00,40.00,22,13,29,0.00
2012-12-23,41,38,35,41,37,27,100,98,70,0.00,40.00,31,20,40,0.00
2012-12-24,45,40,35,44,38,30,100,96,58,0.00,40.00,42,27,57,0.00
2012-12-25,45,39,35,35,23,10,85,54,29,0.00,40.00,19,10,24,0.00
2012-12-26,38,35,32,38,34,29,100,98,73,0.00,40.00,38,28,53,0.00
2012-12-27,38,34,31,34,32,26,100,93,72,0.00,40.00,30,16,40,0.00
2012-12-28,39,35,33,27,19,14,72,52,40,0.00,40.00,16,10,24,0.00
2012-12-29,38,34,32,35,30,21,100,84,60,0.00,40.00,14,8,20,0.00
2012-12-30,34,30,28,33,30,27,100,99,93,0.00,40.00,25,13,34,0.00
2012-12-31,41,33,28,30,24,18,97,73,42,0.00,40.00,12,6,15,0.00
2013-1-1,34,32,30,26,19,9,75,59,38,0.00,40.00,24,15,32,0.00